| time (UTC) | temp F | wind direction | speed MPH | gust MPH | rain 1hr in | rain 24hr in | rain mn in | humidity % | barometer mb |
| 20260506173151 | 54 | 304 | 6.0 | 13.0 | 0.00 | 1.04 | 0.26 | 61 | 1011.2 |
| 20260506171651 | 54 | 316 | 4.0 | 13.0 | 0.00 | 1.04 | 0.26 | 62 | 1011.3 |
| 20260506170847 | 54 | 288 | 5.0 | 9.0 | 0.00 | 1.04 | 0.26 | 67 | 1011.2 |
| 20260506164651 | 53 | 317 | 5.0 | 13.0 | 0.00 | 1.04 | 0.26 | 66 | 1011.2 |
| 20260506163151 | 52 | 334 | 6.0 | 12.0 | 0.00 | 1.04 | 0.26 | 68 | 1011.3 |
| 20260506161651 | 51 | 289 | 4.0 | 11.0 | 0.00 | 1.04 | 0.26 | 75 | 1011.1 |
| 20260506160151 | 51 | 352 | 5.0 | 10.0 | 0.00 | 1.04 | 0.26 | 76 | 1011.2 |
| 20260506154651 | 51 | 356 | 5.0 | 9.0 | 0.00 | 1.04 | 0.26 | 74 | 1010.9 |
| 20260506153150 | 50 | 13 | 4.0 | 9.0 | 0.00 | 1.04 | 0.26 | 75 | 1010.8 |
| 20260506151651 | 49 | 288 | 5.0 | 12.0 | 0.00 | 1.04 | 0.26 | 77 | 1010.5 |
| 20260506150147 | 48 | 7 | 5.0 | 8.0 | 0.00 | 1.04 | 0.26 | 77 | 1010.6 |
| 20260506144647 | 48 | 316 | 5.0 | 10.0 | 0.00 | 1.04 | 0.26 | 80 | 1010.4 |
| 20260506143146 | 47 | 340 | 6.0 | 11.0 | 0.00 | 1.04 | 0.26 | 80 | 1009.8 |
| 20260506141647 | 46 | 309 | 5.0 | 10.0 | 0.00 | 1.04 | 0.26 | 83 | 1009.8 |
| 20260506140147 | 45 | 325 | 5.0 | 10.0 | 0.00 | 1.04 | 0.26 | 86 | 1009.6 |
| 20260506134643 | 45 | 330 | 5.0 | 10.0 | 0.00 | 1.04 | 0.26 | 89 | 1009.6 |
| 20260506133143 | 44 | 333 | 4.0 | 9.0 | 0.00 | 1.04 | 0.26 | 91 | 1009.5 |
| 20260506131643 | 44 | 327 | 4.0 | 10.0 | 0.00 | 1.04 | 0.26 | 92 | 1009.8 |
| 20260506130143 | 44 | 307 | 5.0 | 9.0 | 0.00 | 1.04 | 0.26 | 93 | 1009.4 |
| 20260506124643 | 43 | 342 | 3.0 | 8.0 | 0.00 | 1.04 | 0.26 | 93 | 1009.0 |
| 20260506123143 | 43 | 326 | 2.0 | 6.0 | 0.00 | 1.04 | 0.26 | 94 | 1008.8 |
| 20260506121642 | 43 | 16 | 2.0 | 4.0 | 0.00 | 1.04 | 0.26 | 94 | 1008.4 |
| 20260506120141 | 43 | 43 | 3.0 | 7.0 | 0.00 | 1.04 | 0.26 | 94 | 1008.4 |
| 20260506114641 | 43 | 4 | 3.0 | 7.0 | 0.00 | 1.04 | 0.26 | 96 | 1008.1 |
| 20260506113141 | 43 | 22 | 3.0 | 7.0 | 0.00 | 1.04 | 0.26 | 96 | 1007.8 |
| 20260506111640 | 43 | 1 | 4.0 | 7.0 | 0.00 | 1.04 | 0.26 | 96 | 1007.8 |
| 20260506110139 | 43 | 359 | 3.0 | 8.0 | 0.00 | 1.04 | 0.26 | 96 | 1007.9 |
| 20260506104640 | 43 | 29 | 3.0 | 7.0 | 0.00 | 1.04 | 0.26 | 96 | 1007.3 |
| 20260506103136 | 44 | 326 | 2.0 | 6.0 | 0.00 | 1.04 | 0.26 | 96 | 1008.0 |
| 20260506101634 | 43 | 326 | 3.0 | 7.0 | 0.00 | 1.04 | 0.26 | 96 | 1007.1 |
| 20260506100831 | 43 | 30 | 4.0 | 8.0 | 0.01 | 1.04 | 0.26 | 96 | 1006.3 |
| 20260506094632 | 43 | 49 | 3.0 | 9.0 | 0.03 | 1.04 | 0.26 | 96 | 1005.8 |
| 20260506093132 | 44 | 38 | 5.0 | 9.0 | 0.04 | 1.04 | 0.26 | 96 | 1006.5 |
| 20260506091632 | 44 | 14 | 4.0 | 10.0 | 0.05 | 1.04 | 0.26 | 96 | 1006.5 |
| 20260506090132 | 44 | 27 | 4.0 | 9.0 | 0.04 | 1.03 | 0.25 | 96 | 1006.8 |
| 20260506084631 | 44 | 17 | 3.0 | 8.0 | 0.02 | 1.01 | 0.23 | 96 | 1006.8 |
| 20260506083124 | 44 | 23 | 4.0 | 8.0 | 0.03 | 1.00 | 0.22 | 96 | 1006.8 |
| 20260506081624 | 44 | 21 | 4.0 | 9.0 | 0.04 | 0.99 | 0.21 | 96 | 1006.6 |
| 20260506080125 | 44 | 337 | 5.0 | 11.0 | 0.06 | 0.99 | 0.21 | 95 | 1006.6 |
| 20260506073124 | 46 | 343 | 5.0 | 13.0 | 0.09 | 0.97 | 0.19 | 96 | 1006.2 |
| 20260506071624 | 46 | 41 | 4.0 | 9.0 | 0.09 | 0.96 | 0.17 | 96 | 1006.1 |
| 20260506070122 | 46 | 16 | 5.0 | 10.0 | 0.10 | 0.96 | 0.15 | 96 | 1006.1 |
| 20260506061622 | 47 | 40 | 5.0 | 8.0 | 0.06 | 0.88 | 0.07 | 96 | 1006.0 |
| 20260506060122 | 47 | 43 | 6.0 | 11.0 | 0.04 | 0.86 | 0.05 | 96 | 1006.0 |
| 20260506050122 | 48 | 41 | 3.0 | 5.0 | 0.01 | 0.82 | 0.01 | 96 | 1006.6 |
| 20260506044621 | 48 | 51 | 3.0 | 6.0 | 0.01 | 0.82 | 0.01 | 96 | 1006.5 |
| 20260506043122 | 48 | 59 | 4.0 | 8.0 | 0.01 | 0.81 | 0.00 | 96 | 1006.5 |
| 20260506041623 | 48 | 36 | 3.0 | 5.0 | 0.03 | 0.81 | 0.00 | 96 | 1006.7 |
| 20260506040119 | 48 | 41 | 2.0 | 5.0 | 0.05 | 0.81 | 0.00 | 95 | 1006.8 |
| 20260506034620 | 48 | 26 | 3.0 | 7.0 | 0.06 | 0.81 | 0.81 | 95 | 1006.9 |
| 20260506033809 | 48 | 11 | 3.0 | 7.0 | 0.07 | 0.80 | 0.80 | 95 | 1007.2 |
| 20260506032313 | 49 | 52 | 4.0 | 9.0 | 0.06 | 0.78 | 0.78 | 95 | 1007.5 |
| 20260506030114 | 49 | 324 | 6.0 | 10.0 | 0.07 | 0.76 | 0.76 | 94 | 1007.5 |
| 20260506025326 | 50 | 345 | 6.0 | 11.0 | 0.07 | 0.75 | 0.75 | 94 | 1007.3 |
| 20260506023114 | 53 | 312 | 4.0 | 12.0 | 0.07 | 0.73 | 0.73 | 92 | 1007.1 |
| 20260506021614 | 56 | 280 | 1.0 | 5.0 | 0.08 | 0.72 | 0.72 | 95 | 1006.9 |
| 20260506020113 | 57 | 209 | 1.0 | 8.0 | 0.07 | 0.69 | 0.69 | 95 | 1007.0 |
| 20260506014614 | 57 | 168 | 1.0 | 6.0 | 0.09 | 0.68 | 0.68 | 95 | 1006.9 |
| 20260506013108 | 57 | 347 | 0.0 | 3.0 | 0.18 | 0.66 | 0.66 | 95 | 1007.0 |
| 20260506011608 | 57 | 129 | 1.0 | 6.0 | 0.20 | 0.64 | 0.64 | 95 | 1006.8 |
| 20260506010106 | 57 | 222 | 1.0 | 7.0 | 0.20 | 0.62 | 0.62 | 95 | 1006.7 |
| 20260506004606 | 57 | 288 | 1.0 | 4.0 | 0.17 | 0.59 | 0.59 | 95 | 1006.6 |
| 20260506003107 | 56 | 259 | 0.0 | 2.0 | 0.10 | 0.48 | 0.49 | 94 | 1006.6 |
| 20260506001605 | 56 | 213 | 0.0 | 4.0 | 0.08 | 0.44 | 0.44 | 94 | 1006.5 |
| 20260505234602 | 57 | 259 | 1.0 | 6.0 | 0.10 | 0.42 | 0.42 | 94 | 1006.6 |
| 20260505233103 | 57 | 316 | 1.0 | 5.0 | 0.06 | 0.38 | 0.38 | 93 | 1006.8 |
| 20260505231602 | 57 | 259 | 2.0 | 8.0 | 0.06 | 0.36 | 0.36 | 93 | 1007.0 |
| 20260505224603 | 58 | 305 | 1.0 | 5.0 | 0.28 | 0.32 | 0.32 | 92 | 1007.0 |
| 20260505223101 | 58 | 275 | 1.0 | 6.0 | 0.29 | 0.32 | 0.32 | 92 | 1007.3 |
| 20260505221602 | 58 | 224 | 1.0 | 7.0 | 0.27 | 0.30 | 0.30 | 91 | 1007.2 |
| 20260505220059 | 59 | 227 | 3.0 | 12.0 | 0.23 | 0.26 | 0.27 | 89 | 1007.2 |
| 20260505214559 | 61 | 274 | 4.0 | 10.0 | 0.01 | 0.04 | 0.04 | 85 | 1006.5 |
| 20260505213100 | 63 | 53 | 1.0 | 3.0 | 0.00 | 0.03 | 0.03 | 80 | 1006.0 |
| 20260505211601 | 65 | 303 | 0.0 | 2.0 | 0.00 | 0.03 | 0.03 | 73 | 1006.1 |
| 20260505210101 | 65 | 241 | 1.0 | 6.0 | 0.00 | 0.03 | 0.03 | 72 | 1006.0 |
| 20260505204557 | 65 | 229 | 1.0 | 7.0 | 0.00 | 0.03 | 0.03 | 72 | 1006.4 |
| 20260505203057 | 65 | 211 | 1.0 | 6.0 | 0.00 | 0.03 | 0.03 | 72 | 1006.6 |
| 20260505202241 | 65 | 259 | 2.0 | 12.0 | 0.00 | 0.03 | 0.03 | 71 | 1006.6 |
| 20260505200804 | 65 | 162 | 2.0 | 7.0 | 0.00 | 0.03 | 0.03 | 72 | 1006.8 |
| 20260505194550 | 64 | 224 | 2.0 | 12.0 | 0.00 | 0.03 | 0.03 | 73 | 1007.0 |
| 20260505193049 | 64 | 203 | 1.0 | 6.0 | 0.00 | 0.03 | 0.03 | 74 | 1007.1 |
| 20260505191549 | 64 | 248 | 2.0 | 10.0 | 0.00 | 0.03 | 0.03 | 73 | 1007.3 |
| 20260505190049 | 64 | 227 | 2.0 | 7.0 | 0.00 | 0.03 | 0.03 | 72 | 1007.3 |
| 20260505185245 | 65 | 84 | 3.0 | 9.0 | 0.00 | 0.03 | 0.03 | 71 | 1007.3 |
| 20260505183050 | 66 | 255 | 2.0 | 9.0 | 0.00 | 0.03 | 0.03 | 69 | 1007.3 |
| 20260505181547 | 67 | 268 | 3.0 | 9.0 | 0.00 | 0.03 | 0.03 | 68 | 1007.2 |
| 20260505180742 | 66 | 251 | 3.0 | 17.0 | 0.00 | 0.03 | 0.03 | 68 | 1007.3 |
| 20260505174547 | 66 | 248 | 3.0 | 12.0 | 0.00 | 0.03 | 0.03 | 66 | 1007.6 |
| 20260505173749 | 67 | 257 | 4.0 | 11.0 | 0.00 | 0.03 | 0.03 | 65 | 1007.6 |